Kazan, Russia

12:09 AM MSK on December 07, 2019 (GMT +0300)
Kazan

Weather History for UWKD - October, 2019

Change the Weather History Date:

Wednesday, October 2, 2019

  Actual Average (WUND) Record (WUND)
Temperature  
Mean Temperature 54 °F -  
Max Temperature 60 °F - - (-1)
Min Temperature 48 °F - - (-1)
Degree Days  
Heating Degree Days 11    
Growing Degree Days 4 (Base 50)    
Moisture  
Dew Point 48 °F    
Average Humidity 81    
Maximum Humidity 96    
Minimum Humidity 62    
Precipitation  
Precipitation 0.00 in - - ()
Sea Level Pressure  
Sea Level Pressure 29.81 in    
Wind  
Wind Speed 10 mph ()    
Max Wind Speed 16 mph    
Max Gust Speed 27 mph    
Visibility 6.1 miles    
Events Rain    
Averages and records for this station are not official NWS values.
T = Trace of Precipitation, MM = Missing Value Source: Averaged Metar Reports

Daily Weather History Graph

Daily Weather History Graph

Search for Another Location

Airport or City:

Astronomy

Oct. 02, 2019 Rise Set
Actual Time 5:46 AM MSK 5:17 PM MSK
Civil Twilight 5:09 AM MSK 5:53 PM MSK
Nautical Twilight 4:26 AM MSK 6:36 PM MSK
Astronomical Twilight 3:42 AM MSK 7:20 PM MSK
Moon 10:24 AM MSK (10/2) 7:12 PM MSK (10/2)
Length of Visible Light 12h 43m
Length of Day
11h 30m
Waxing Crescent, 18% of the Moon is Illuminated
Oct 2
Waxing Crescent
Oct 5
First Quarter
Oct 14
Full
Oct 21
Last Quarter
Oct 28
New

Hourly Weather History & Observations

Time (MSK) Temp. Dew Point Humidity Pressure Visibility Wind Dir Wind Speed Gust Speed Precip Events Conditions
12:00 AM 53 °F 52 °F 96% 29.70 in 6 mi SSE 4.5 mph - - Rain Light Rain
12:00 AM 53.6 °F 50.0 °F 88% 29.68 in 6.2 mi South 15.7 mph 26.8 mph N/A Rain Light Rain Showers
12:30 AM 53.6 °F 50.0 °F 88% 29.68 in 6.2 mi South 15.7 mph 26.8 mph N/A Rain Light Rain Showers
1:00 AM 53.6 °F 50.0 °F 88% 29.68 in 6.2 mi South 15.7 mph 26.8 mph N/A   Mostly Cloudy
1:30 AM 53.6 °F 50.0 °F 88% 29.68 in 6.2 mi South 15.7 mph 26.8 mph N/A   Mostly Cloudy
2:00 AM 53.6 °F 50.0 °F 88% 29.68 in 6.2 mi South 15.7 mph 26.8 mph N/A   Mostly Cloudy
2:30 AM 53.6 °F 48.2 °F 82% 29.68 in 6.2 mi South 15.7 mph 26.8 mph N/A   Mostly Cloudy
3:00 AM 54 °F 50 °F 82% 29.71 in 6 mi SSE 4.5 mph - -   Partly Cloudy
3:00 AM 53.6 °F 48.2 °F 82% 29.68 in 6.2 mi South 15.7 mph 26.8 mph N/A   Mostly Cloudy
3:30 AM 53.6 °F 48.2 °F 82% 29.71 in 6.2 mi South 11.2 mph 22.4 mph N/A   Mostly Cloudy
4:00 AM 53.6 °F 48.2 °F 82% 29.71 in 6.2 mi South 11.2 mph 22.4 mph N/A   Mostly Cloudy
4:30 AM 53.6 °F 48.2 °F 82% 29.71 in 6.2 mi South 11.2 mph 22.4 mph N/A   Overcast
5:00 AM 53.6 °F 48.2 °F 82% 29.71 in 6.2 mi South 15.7 mph - N/A   Overcast
5:30 AM 53.6 °F 48.2 °F 82% 29.71 in 6.2 mi South 13.4 mph - N/A   Overcast
6:00 AM 54 °F 50 °F 82% 29.73 in 6 mi South 2.2 mph - -   Overcast
6:00 AM 53.6 °F 48.2 °F 82% 29.71 in 6.2 mi South 13.4 mph - N/A   Overcast
6:30 AM 53.6 °F 48.2 °F 82% 29.71 in 6.2 mi South 13.4 mph - N/A   Overcast
7:30 AM 53.6 °F 48.2 °F 82% 29.74 in 6.2 mi South 13.4 mph - N/A   Overcast
8:00 AM 53.6 °F 50.0 °F 88% 29.74 in 6.2 mi South 13.4 mph - N/A   Mostly Cloudy
8:30 AM 53.6 °F 50.0 °F 88% 29.77 in 5.6 mi South 13.4 mph - N/A Rain Light Rain Showers
9:00 AM 53.6 °F 50.0 °F 88% 29.77 in 6.2 mi South 8.9 mph - N/A   Mostly Cloudy
9:30 AM 53.6 °F 51.8 °F 94% 29.77 in 6.2 mi South 8.9 mph - N/A   Mostly Cloudy
10:00 AM 55.4 °F 53.6 °F 94% 29.80 in 5.6 mi SSW 8.9 mph - N/A Rain Light Rain Showers
10:30 AM 55.4 °F 53.6 °F 94% 29.80 in 6.2 mi WSW 11.2 mph - N/A   Mostly Cloudy
11:00 AM 55.4 °F 51.8 °F 88% 29.83 in 6.2 mi West 8.9 mph - N/A   Mostly Cloudy
11:30 AM 57.2 °F 51.8 °F 82% 29.83 in 6.2 mi West 11.2 mph - N/A   Mostly Cloudy
12:00 PM 55 °F 51 °F 80% 29.86 in 6 mi WSW 2.2 mph - -   Partly Cloudy
12:00 PM 55.4 °F 50.0 °F 82% 29.83 in 6.2 mi West 11.2 mph - N/A   Mostly Cloudy
12:30 PM 57.2 °F 50.0 °F 77% 29.86 in 6.2 mi West 8.9 mph - N/A   Mostly Cloudy
1:30 PM 59.0 °F 48.2 °F 67% 29.86 in - WSW 11.2 mph - N/A   Clear
2:00 PM 60.8 °F 50.0 °F 68% 29.86 in - West 13.4 mph - N/A   Clear
2:30 PM 59.0 °F 48.2 °F 67% 29.86 in - West 11.2 mph - N/A   Clear
3:00 PM 59.0 °F 48.2 °F 67% 29.86 in 6.2 mi WSW 11.2 mph - N/A   Scattered Clouds
3:30 PM 59.0 °F 48.2 °F 67% 29.89 in 6.2 mi SW 6.7 mph - N/A   Scattered Clouds
4:00 PM 57.2 °F 46.4 °F 67% 29.89 in 6.2 mi WSW 8.9 mph - N/A   Scattered Clouds
4:30 PM 57.2 °F 44.6 °F 63% 29.89 in 6.2 mi WSW 8.9 mph - N/A   Scattered Clouds
5:00 PM 55.4 °F 44.6 °F 67% 29.89 in - SW 4.5 mph - N/A   Clear
5:30 PM 55.4 °F 42.8 °F 63% 29.89 in - SW 6.7 mph - N/A   Clear
6:00 PM 53 °F 44 °F 62% 29.92 in 6 mi Calm Calm - -  
6:00 PM 53.6 °F 42.8 °F 67% 29.89 in - SSW 6.7 mph - N/A   Clear
6:30 PM 50.0 °F 44.6 °F 82% 29.89 in - SSW 8.9 mph - N/A   Clear
7:00 PM 50.0 °F 46.4 °F 87% 29.89 in - South 8.9 mph - N/A   Clear
7:30 PM 48.2 °F 44.6 °F 87% 29.92 in - South 6.7 mph - N/A   Clear
8:00 PM 48.2 °F 44.6 °F 87% 29.92 in - South 4.5 mph - N/A   Clear
8:30 PM 48.2 °F 44.6 °F 87% 29.92 in - SSE 6.7 mph - N/A   Clear
9:00 PM 52 °F 45 °F 71% 29.93 in 6 mi SSE 2.2 mph - -   Mostly Cloudy
9:00 PM 50.0 °F 46.4 °F 87% 29.92 in - South 8.9 mph - N/A   Clear
9:30 PM 50.0 °F 46.4 °F 87% 29.92 in - South 8.9 mph - N/A   Clear
10:00 PM 50.0 °F 48.2 °F 94% 29.89 in - South 11.2 mph - N/A   Clear
10:30 PM 51.8 °F 48.2 °F 88% 29.89 in - South 8.9 mph - N/A   Clear
11:00 PM 51.8 °F 48.2 °F 88% 29.89 in - SSW 11.2 mph - N/A   Clear
11:30 PM 51.8 °F 46.4 °F 82% 29.89 in - South 6.7 mph - N/A   Clear